Flag for USA

Past Weather in Rancho Cucamonga, California, USA — Yesterday and Last 2 Weeks

Now
66 °F

Sunny.


Feels Like: 66 °F
Forecast: 92 / 64 °F
Wind: 5 mph from Southwest

Location: Ontario International Airport

Current Time: Jul 8, 2020 at 8:16:56 am

Latest Report: Jul 8, 2020 at 6:53 am


Visibility: 9 mi

Pressure: 29.84 "Hg

Humidity: 73%

Dew Point: 57 °F

Location of Rancho CucamongaLocation

Past Weather in Rancho Cucamonga — Graph

°F

Rancho Cucamonga Temperature Yesterday

Maximum temperature yesterday: 94 °F (at 1:53 pm)
Minimum temperature yesterday: 66 °F (at 5:53 am)
Average temperature yesterday: 79 °F

High & Low Weather Summary for the Past Weeks

 TemperatureHumidityPressure
High98 °F (Jul 5, 2:53 pm)93% (Jun 23, 6:09 am)29.98 "Hg (Jun 23, 6:09 am)
Low60 °F (Jun 30, 3:53 am)12% (Jul 3, 12:53 pm)29.72 "Hg (Jun 24, 4:53 pm)
Average74 °F56%29.85 "Hg
* Reported Jun 23 6:09 am — Jul 8 6:53 am, Rancho Cucamonga. Weather by CustomWeather, © 2020

Note: Actual official high and low records may vary slightly from our data, if they occured in-between our weather recording intervals... More about our weather records

Rancho Cucamonga Weather History for the Previous 24 Hours

Scroll right to see more
 ConditionsComfort  
Time TempWeatherWind HumidityBarometerVisibility
6:53 am
Wed, Jul 8
66 °FSunny.5 mph73%29.84 "Hg9 mi
5:53 am64 °FSunny.6 mph65%29.84 "Hg10 mi
4:53 am65 °FClear.6 mph76%29.83 "Hg10 mi
3:53 am66 °FClear.6 mph78%29.81 "Hg10 mi
2:53 am67 °FClear.3 mph71%29.81 "Hg10 mi
1:53 am68 °FClear.6 mph70%29.81 "Hg10 mi
12:53 am70 °FClear.6 mph68%29.82 "Hg10 mi
11:53 pm
Tue, Jul 7
71 °FClear.8 mph68%29.82 "Hg10 mi
10:53 pm73 °FClear.3 mph64%29.82 "Hg10 mi
9:53 pm75 °FClear.9 mph58%29.81 "Hg10 mi
8:53 pm77 °FClear.7 mph48%29.79 "Hg10 mi
7:53 pm81 °FSunny.12 mph41%29.78 "Hg10 mi
6:53 pm85 °FSunny.14 mph31%29.78 "Hg10 mi
5:53 pm88 °FSunny.15 mph28%29.78 "Hg10 mi
4:53 pm91 °FSunny.17 mph25%29.78 "Hg10 mi
3:53 pm93 °FSunny.15 mph20%29.78 "Hg10 mi
2:53 pm94 °FSunny.12 mph23%29.79 "Hg10 mi
1:53 pm94 °FSunny.12 mph22%29.81 "Hg10 mi
12:53 pm92 °FSunny.7 mph24%29.81 "Hg10 mi
11:53 am89 °FSunny.No wind22%29.83 "Hg10 mi
10:53 am85 °FSunny.No wind30%29.85 "Hg10 mi
9:53 am80 °FSunny.No wind42%29.85 "Hg10 mi
8:53 am75 °FSunny.No wind52%29.86 "Hg10 mi
Weather by CustomWeather, © 2020

See weather overview